FW6920 Weather Reports


time (UTC)temp
F
wind
direction
speed
knots
gust
knots
rain 1hr
in
rain 24hr
in
rain mn
in
humidity
%
barometer
mb
20260507201607 71 317 13.9 20.9 0.00 0.00 0.00 35 1017.8
20260507200031 70 318 13.9 20.9 0.00 0.00 0.00 36 1018.0
20260507194531 69 318 13.9 20.0 0.00 0.00 0.00 37 1018.0
20260507191533 67 316 15.6 20.0 0.00 0.00 0.00 41 1018.5
20260507190029 66 317 15.6 20.0 0.00 0.00 0.00 43 1018.7
20260507184529 66 324 14.8 20.0 0.00 0.00 0.00 44 1018.9
20260507183041 66 326 13.0 19.1 0.00 0.00 0.00 45 1019.1
20260507181608 65 330 11.3 16.5 0.00 0.00 0.00 47 1019.4
20260507180107 64 326 11.3 16.5 0.00 0.00 0.00 48 1019.4
20260507174530 63 325 10.4 17.4 0.00 0.00 0.00 50 1019.5
20260507173042 64 333 9.6 14.8 0.00 0.00 0.00 50 1019.8
20260507173033 64 335 7.8 13.0 0.00 0.00 0.00 51 1020.0
20260507170112 64 333 8.7 14.8 0.00 0.00 0.00 51 1020.0
20260507164528 64 325 10.4 15.6 0.00 0.00 0.00 52 1020.0
20260507163031 64 318 9.6 13.0 0.00 0.00 0.00 53 1020.1
20260507161542 63 317 8.7 13.9 0.00 0.00 0.00 55 1020.2
20260507160036 62 310 7.0 11.3 0.00 0.00 0.00 57 1020.4
20260507154531 61 310 7.0 13.0 0.00 0.00 0.00 59 1020.6
20260507153032 60 42 4.3 16.5 0.00 0.00 0.00 63 1020.7
20260507150038 58 265 1.7 8.7 0.00 0.00 0.00 67 1020.8
20260507144532 55 301 3.5 8.7 0.00 0.00 0.00 71 1020.7
20260507143031 53 308 7.8 15.6 0.00 0.00 0.00 74 1020.5
20260507140032 52 313 7.8 13.9 0.00 0.00 0.00 77 1020.3
20260507134533 52 314 11.3 17.4 0.00 0.00 0.00 77 1020.0
20260507133030 52 313 13.9 19.1 0.00 0.00 0.00 77 1019.9
20260507131530 52 314 13.9 18.2 0.00 0.00 0.00 78 1019.9
20260507130031 52 314 13.0 16.5 0.00 0.00 0.00 78 1020.0
20260507124530 52 316 12.2 19.1 0.00 0.00 0.00 78 1020.1
20260507123029 52 316 12.2 17.4 0.00 0.00 0.00 77 1020.0
20260507121531 52 316 12.2 16.5 0.00 0.00 0.00 76 1019.9
20260507120031 53 316 11.3 15.6 0.00 0.00 0.00 75 1019.8
20260507114606 53 313 12.2 16.5 0.00 0.00 0.00 75 1019.6
20260507113030 54 311 11.3 20.9 0.00 0.00 0.00 74 1019.5
20260507111535 54 311 12.2 18.2 0.00 0.00 0.00 74 1019.4
20260507110029 54 303 12.2 18.2 0.00 0.00 0.00 75 1019.2
20260507104607 54 312 13.9 19.1 0.00 0.00 0.00 75 1019.0
20260507103032 54 312 13.0 16.5 0.00 0.00 0.00 75 1019.1
20260507100050 55 315 11.3 15.6 0.00 0.00 0.00 72 1019.3
20260507094530 56 314 11.3 15.6 0.00 0.00 0.00 72 1019.4
20260507093030 56 314 10.4 14.8 0.00 0.00 0.00 72 1019.5
20260507091530 56 323 10.4 15.6 0.00 0.00 0.00 73 1019.5
20260507090031 56 322 7.0 14.8 0.00 0.00 0.00 73 1019.5
20260507084530 56 336 3.5 7.0 0.00 0.00 0.00 73 1019.4
20260507083028 56 359 4.3 7.0 0.00 0.00 0.00 72 1019.4
20260507081531 57 353 4.3 7.8 0.00 0.00 0.00 71 1019.4
20260507080030 58 336 4.3 7.0 0.00 0.00 0.00 71 1019.5
20260507074531 58 315 6.1 12.2 0.00 0.00 0.00 72 1019.4
20260507073031 58 315 8.7 13.9 0.00 0.00 0.00 72 1019.3
20260507071531 58 315 9.6 17.4 0.00 0.00 0.00 72 1019.3
20260507070105 58 311 9.6 14.8 0.00 0.00 0.00 72 1019.3
20260507063032 59 316 6.1 10.4 0.00 0.00 0.00 70 1019.5
20260507061529 59 314 8.7 14.8 0.00 0.00 0.00 69 1019.5
20260507060033 60 313 9.6 17.4 0.00 0.00 0.00 68 1019.6
20260507054536 60 310 9.6 15.6 0.00 0.00 0.00 67 1019.7
20260507053108 60 311 8.7 14.8 0.00 0.00 0.00 66 1019.8
20260507051530 61 304 7.0 10.4 0.00 0.00 0.00 63 1019.9
20260507050034 61 297 7.0 14.8 0.00 0.00 0.00 61 1019.8
20260507044528 62 306 7.0 12.2 0.00 0.00 0.00 58 1019.8
20260507043031 63 309 6.1 12.2 0.00 0.00 0.00 54 1019.8
20260507041531 64 300 6.1 11.3 0.00 0.00 0.00 52 1019.6
20260507034607 65 299 5.2 10.4 0.00 0.00 0.00 50 1019.4
20260507031529 66 286 1.7 9.6 0.00 0.00 0.00 50 1019.2
20260507023033 67 311 6.1 16.5 0.00 0.00 0.00 48 1018.9
20260507021606 67 315 9.6 17.4 0.00 0.00 0.00 48 1018.8
20260507020031 68 312 9.6 17.4 0.00 0.00 0.00 47 1018.6
20260507014530 68 312 11.3 20.9 0.00 0.00 0.00 46 1018.5
20260507013031 68 314 11.3 20.0 0.00 0.00 0.00 46 1018.4
20260507011530 69 320 9.6 17.4 0.00 0.00 0.00 47 1018.5
20260507010030 69 321 10.4 20.9 0.00 0.00 0.00 45 1018.4
20260507004531 70 314 11.3 18.2 0.00 0.00 0.00 44 1018.2
20260507000049 71 312 12.2 19.1 0.00 0.00 0.00 42 1017.9
20260506234530 73 313 14.8 24.3 0.00 0.00 0.00 40 1017.7
20260506233103 74 315 16.5 24.3 0.00 0.00 0.00 39 1017.4
20260506231536 75 311 19.1 29.5 0.00 0.00 0.00 39 1017.3
20260506224530 75 312 14.8 22.6 0.00 0.00 0.00 39 1017.6
20260506221532 76 312 14.8 26.1 0.00 0.00 0.00 41 1018.3
20260506214532 76 316 13.0 20.9 0.00 0.00 0.00 41 1018.2
20260506213030 75 308 15.6 25.2 0.00 0.00 0.00 43 1017.8
20260506210037 74 310 19.1 28.7 0.00 0.00 0.00 44 1017.6
20260506204607 74 308 17.4 28.7 0.00 0.00 0.00 45 1017.8